Location: Niagara
(43.2500°N, 79.0670°W)
Time: 09:02:19
(UTC-05:00)

OTV 5 (USA 277) - Pass Details

Date: 16 October 2017
Orbit: 404 x 417 km, 43.0° (Epoch: 07 September)

Event Time Altitude Azimuth Distance (km) Brightness Sun altitude
Rises 19:27:27 0° 268° (W) 2,353 ? -11.0°
Reaches altitude 10° 19:29:33 10° 268° (W) 1,491 ? -11.4°
Maximum altitude 19:32:56 88° 178° (S) 421 ? -12.0°
Enters shadow 19:35:01 22° 90° (E) 975 ? -12.4°
